Location: Little Maitland River
(43.8022°N, 81.1549°W)
Time: 10:18:25
(UTC+00:00)

Tiangong - Pass Details

Date: 17 March 2026
Orbit: 376 x 385 km, 41.5° (Epoch: 20 April)

Event Time Altitude Azimuth Distance (km) Brightness Sun altitude
Exits shadow 09:43:14 45° 141° (SE) 534 -1.4 -20.4°
Drops below altitude 10° 09:45:52 10° 96° (E) 1,408 1.7 -19.9°
Sets 09:48:02 0° 90° (E) 2,287 3.1 -19.5°
